[[{"header":{"parameterUnit":"m.s-1","parameterCategory":1,"la1":30.2991,"la2":30.254,"lo1":-89.0895,"lo2":-89.0444,"dy":0.0017,"dx":0.0017,"nx":28,"ny":28,"refTime":"2025-12-21T03:00:00:Z","depth":0,"parameterNumber":2,"parameterNumberName":"U-component_of_WINDS"},"data":[0,0,0,0,0,0,0,0,0,0,0,0,0,0,0,0,0,0,0,0,0,0,0,0,0,0,0,0,0,0,0,0,0,0,0,0,0,0,0,0,0,0,0,0,0,0,0,0,0,0,0,0,0,0,0,0,0,0,-3.2619,-3.2619,0,-3.2617,-3.2616,-3.2616,-3.2513,-3.251,-3.2508,-3.2505,-3.2505,-3.2508,-3.251,0,0,0,0,0,0,0,0,0,0,0,0,0,-3.2539,-3.2541,-3.2619,-3.2619,-3.2619,-3.2617,-3.2616,-3.2616,-3.2513,-3.251,-3.2507,-3.2504,-3.2504,-3.2507,-3.251,0,0,0,0,0,0,0,0,0,0,0,0,0,-3.2559,-3.2542,-3.2619,-3.2567,-3.2563,-3.2617,-3.2616,-3.2616,-3.2514,-3.251,-3.2506,-3.2502,-3.2503,-3.2507,-3.2511,-3.2615,0,0,-3.2522,-3.2524,0,0,0,0,0,0,0,0,-3.2558,-3.2562,-3.2575,-3.2571,-3.2566,-3.2561,-3.2588,-3.2616,-3.2515,-3.2533,-3.2505,-3.25,-3.2527,-3.2529,-3.2537,-3.2615,-3.2615,-3.2523,-3.2525,-3.2527,-3.2528,0,0,0,0,0,0,0,-3.2557,-3.2562,-3.2618,-3.2576,-3.257,-3.2545,-3.2544,-3.2593,-3.2553,-3.2531,-3.2523,-3.2524,-3.2524,-3.2534,-3.2536,-3.2615,-3.2522,-3.2526,-3.2528,-3.253,-3.2779,-3.2783,0,0,0,0,0,0,-3.2562,-3.2561,-3.2618,-3.2618,-3.2552,-3.255,-3.2548,-3.2567,-3.2552,-3.2546,-3.2528,-3.2519,-3.2529,-3.2532,-3.2536,-3.2657,-3.2526,-3.253,-3.2532,-3.2775,-3.278,-3.2784,0,0,0,0,0,0,-3.2561,-3.2568,-3.2618,-3.2588,-3.2592,-3.2556,-3.2577,-3.2569,-3.2578,-3.2549,-3.2542,-3.2545,-3.2526,-3.2531,-3.2596,-3.2656,-3.2532,-3.2535,-3.2769,-3.2776,-3.2782,-3.2901,0,0,0,0,0,0,-3.2559,-3.2568,-3.2607,-3.2589,-3.2594,-3.2678,-3.2581,-3.2572,-3.2585,-3.2574,-3.2564,-3.2558,-3.2523,-3.2591,-3.26,-3.2659,-3.2538,-3.2764,-3.2772,-3.278,-3.2891,-3.2911,-3.2927,0,0,0,0,0,-3.2556,-3.2641,-3.2609,-3.2616,-3.2641,-3.2681,-3.2684,-3.2642,-3.259,-3.2629,-3.261,-3.2558,-3.2648,-3.2598,-3.2608,-3.2669,-3.276,-3.277,-3.2779,-3.2883,-3.2907,-3.2927,0,0,0,0,0,0,-3.2667,-3.2637,-3.2602,-3.2683,-3.2685,-3.2664,-3.2711,-3.2668,-3.2686,-3.2675,-3.2623,-3.2621,-3.2695,-3.2688,-3.2634,-3.2769,-3.2695,-3.2707,-3.2771,-3.2793,-3.281,-3.281,-3.2541,0,0,0,0,0,-3.27,-3.2734,-3.2707,-3.2781,-3.2784,-3.2748,-3.2764,-3.2731,-3.2732,-3.2733,-3.2719,-3.2723,-3.2751,-3.2772,-3.2797,-3.289,-3.2887,-3.2937,-3.2954,-3.2969,-3.298,-3.303,-3.3052,-3.2817,-3.2817,-3.2816,0,0,-3.277,-3.2758,-3.2783,-3.2803,-3.2801,-3.2839,-3.275,-3.2793,-3.2821,-3.274,-3.28,-3.2791,-3.2791,-3.2871,-3.2906,-3.2868,-3.3045,-3.2982,-3.2994,-3.2997,-3.3042,-3.3065,-3.3085,-3.2823,-3.2822,-3.2821,0,0,-3.2917,-3.2911,-3.2972,-3.2972,-3.297,-3.2946,-3.2961,-3.2946,-3.2936,-3.2996,-3.2936,-3.2969,-3.302,-3.3023,-3.3031,-3.3181,-3.3134,-3.3191,-3.3284,-3.3333,-3.3351,-3.3368,-3.3422,-3.3441,-3.3202,-3.3202,-3.3202,0,-3.3004,-3.3057,-3.301,-3.3057,-3.3068,-3.2996,-3.3058,-3.3061,-3.3068,-3.3078,-3.3035,-3.3098,-3.3093,-3.3173,-3.321,-3.3219,-3.3235,-3.3191,-3.3352,-3.3368,-3.3383,-3.3434,-3.3454,-3.3209,-3.3208,-3.3208,-3.3207,0,-3.3166,-3.3204,-3.3254,-3.3261,-3.3278,-3.3333,-3.3295,-3.3318,-3.3284,-3.3264,-3.3327,-3.3319,-3.3341,-3.3358,-3.3326,-3.3434,-3.3411,-3.3361,-3.3286,-3.3413,-3.346,-3.3479,-3.3219,-3.3216,-3.3214,-3.3213,0,0,-3.3381,-3.3362,-3.3381,-3.3384,-3.3377,-3.3406,-3.3459,-3.348,-3.3501,-3.3508,-3.3552,-3.3597,-3.3551,-3.3561,-3.3528,-3.3571,-3.3691,-3.3516,-3.3515,-3.3549,-3.3811,-3.3849,-3.3872,-3.366,-3.3664,-3.3666,-3.3811,0,-3.3523,-3.361,-3.3569,-3.3661,-3.3696,-3.3629,-3.3675,-3.3676,-3.366,-3.3688,-3.367,-3.3703,-3.364,-3.3645,-3.3685,-3.3668,-3.3743,-3.3657,-3.3701,-3.3703,-3.3703,-3.3896,-3.3936,-3.4073,-3.3829,-3.3832,-3.3835,0,-3.37,-3.3714,-3.381,-3.3797,-3.3811,-3.3852,-3.3869,-3.3897,-3.3898,-3.3883,-3.3894,-3.3852,-3.3904,-3.3829,-3.39,-3.3843,-3.3858,-3.3853,-3.3857,-3.386,-3.3777,-3.3904,-3.4115,-3.4136,-3.3863,-3.3861,-3.3859,0,-3.3848,-3.3891,-3.3954,-3.3959,-3.3946,-3.3977,-3.3973,-3.397,-3.3985,-3.4001,-3.401,-3.4032,-3.4044,-3.4062,-3.4027,-3.3976,-3.4104,-3.4026,-3.4094,-3.4095,-3.4124,-3.4122,-3.4341,-3.4134,-3.4134,-3.4133,-3.4133,0,-3.401,-3.4072,-3.402,-3.4059,-3.4126,-3.408,-3.4148,-3.4137,-3.4135,-3.4171,-3.4115,-3.415,-3.4102,-3.4134,-3.4107,-3.4171,-3.4177,-3.4167,-3.4159,-3.4172,-3.4173,-3.4181,-3.4171,-3.4139,-3.4138,-3.4137,-3.4136,0,-3.4186,-3.4154,-3.4219,-3.4201,-3.4198,-3.4249,-3.4234,-3.427,-3.425,-3.4297,-3.4305,-3.4275,-3.4309,-3.4276,-3.4308,-3.4291,-3.4376,-3.4354,-3.4375,-3.4369,-3.4439,-3.4434,-3.467,-3.47,-3.4475,-3.4477,-3.4479,0,-3.4292,-3.4338,-3.4325,-3.4345,-3.4345,-3.4378,-3.4393,-3.435,-3.4369,-3.4374,-3.441,-3.4439,-3.446,-3.4518,-3.4499,-3.4524,-3.4503,-3.4584,-3.4506,-3.4518,-3.4505,-3.4502,-3.4507,-3.46,-3.4603,-3.4605,-3.4607,0,-3.4484,-3.4466,-3.449,-3.451,-3.453,-3.4544,-3.4553,-3.4573,-3.4528,-3.4552,-3.4586,-3.4603,-3.4636,-3.4666,-3.4685,-3.4682,-3.4638,-3.4632,-3.4649,-3.4662,-3.4673,-3.4669,-3.4419,-3.4626,-3.4624,-3.4623,-3.4622,-3.4621,-3.4628,-3.4665,-3.4663,-3.4692,-3.4695,-3.4705,-3.4738,-3.4722,-3.4749,-3.4772,-3.4745,-3.4787,-3.4788,-3.481,-3.4812,-3.4845,-3.4811,-3.4836,-3.4842,-3.4849,-3.486,-3.4668,-3.4849,-3.4848,-3.4848,-3.4847,-3.4847,0,-3.4816,-3.4812,-3.4839,-3.4854,-3.4878,-3.4833,-3.4841,-3.4864,-3.4902,-3.4906,-3.4928,-3.4968,-3.4997,-3.4981,-3.5007,-3.5036,-3.5017,-3.5045,-3.5042,-3.5042,-3.4888,-3.4871,-3.506,-3.506,-3.506,-3.506,-3.506,-3.506,-3.4917,-3.4979,-3.4961,-3.5024,-3.5019,-3.5059,-3.5068,-3.5077,-3.508,-3.5127,-3.5151,-3.514,-3.5137,-3.5162,-3.5188,-3.5182,-3.5194,-3.523,-3.5217,-3.5074,-3.5053,-3.5033,-3.5016,-3.5233,-3.5233,-3.5368,-3.537,-3.5371]},{"header":{"parameterUnit":"m.s-1","parameterCategory":1,"la1":30.2991,"la2":30.254,"lo1":-89.0895,"lo2":-89.0444,"dy":0.0017,"dx":0.0017,"nx":28,"ny":28,"refTime":"2025-12-21T03:00:00:Z","depth":0,"parameterNumber":3,"parameterNumberName":"V-component_of_WINDS"},"data":[0,0,0,0,0,0,0,0,0,0,0,0,0,0,0,0,0,0,0,0,0,0,0,0,0,0,0,0,0,0,0,0,0,0,0,0,0,0,0,0,0,0,0,0,0,0,0,0,0,0,0,0,0,0,0,0,0,0,-0.0485,-0.0485,0,-0.0456,-0.0456,-0.0456,-0.0458,-0.0458,-0.0459,-0.0459,-0.0428,-0.0427,-0.0426,0,0,0,0,0,0,0,0,0,0,0,0,0,-0.054,-0.0539,-0.0486,-0.0485,-0.0485,-0.0456,-0.0456,-0.0456,-0.0458,-0.0458,-0.0459,-0.0459,-0.0428,-0.0427,-0.0426,0,0,0,0,0,0,0,0,0,0,0,0,0,-0.0514,-0.0539,-0.0486,-0.0482,-0.0482,-0.0457,-0.0456,-0.0456,-0.0457,-0.0458,-0.0459,-0.0459,-0.0429,-0.0427,-0.0425,-0.0401,0,0,-0.042,-0.0419,0,0,0,0,0,0,0,0,-0.0516,-0.0512,-0.0483,-0.0483,-0.0482,-0.0461,-0.0464,-0.0437,-0.0457,-0.0467,-0.0459,-0.046,-0.0439,-0.0436,-0.0429,-0.04,-0.0398,-0.042,-0.0418,-0.0418,-0.0417,0,0,0,0,0,0,0,-0.0517,-0.0513,-0.0474,-0.0483,-0.0482,-0.0481,-0.0478,-0.0459,-0.0449,-0.0466,-0.0466,-0.0463,-0.0438,-0.0431,-0.0428,-0.0398,-0.042,-0.0418,-0.0417,-0.0416,-0.0344,-0.0343,0,0,0,0,0,0,-0.052,-0.0515,-0.0475,-0.0473,-0.0501,-0.048,-0.0477,-0.0467,-0.045,-0.0447,-0.0462,-0.0463,-0.0434,-0.043,-0.0427,-0.0396,-0.0418,-0.0416,-0.0415,-0.0345,-0.0344,-0.0343,0,0,0,0,0,0,-0.0521,-0.0517,-0.0476,-0.0494,-0.0489,-0.0478,-0.0468,-0.0466,-0.0459,-0.0447,-0.0445,-0.0456,-0.0434,-0.043,-0.0407,-0.0395,-0.0415,-0.0413,-0.0346,-0.0344,-0.0343,-0.0333,0,0,0,0,0,0,-0.0523,-0.0517,-0.0509,-0.0494,-0.0488,-0.0457,-0.0467,-0.0465,-0.0456,-0.0456,-0.0441,-0.0439,-0.0434,-0.041,-0.0405,-0.0392,-0.0412,-0.0347,-0.0345,-0.0344,-0.0335,-0.0332,-0.033,0,0,0,0,0,-0.0525,-0.0507,-0.0508,-0.0503,-0.0477,-0.0456,-0.0453,-0.0448,-0.0455,-0.0445,-0.0437,-0.0439,-0.0397,-0.0407,-0.0402,-0.0389,-0.0347,-0.0345,-0.0344,-0.0336,-0.0332,-0.033,0,0,0,0,0,0,-0.0521,-0.0505,-0.0506,-0.0484,-0.0471,-0.0457,-0.0445,-0.0445,-0.0431,-0.0432,-0.0427,-0.0423,-0.0399,-0.0392,-0.0404,-0.0363,-0.0373,-0.037,-0.0369,-0.0365,-0.0363,-0.0365,-0.041,0,0,0,0,0,-0.0518,-0.0503,-0.049,-0.0471,-0.0465,-0.0456,-0.0447,-0.0444,-0.0431,-0.0426,-0.0416,-0.0403,-0.0386,-0.0375,-0.036,-0.0334,-0.0329,-0.0322,-0.0319,-0.0317,-0.0314,-0.0297,-0.0293,-0.0337,-0.0337,-0.0337,0,0,-0.0511,-0.05,-0.0491,-0.047,-0.046,-0.0444,-0.0452,-0.0435,-0.0422,-0.0423,-0.0401,-0.0393,-0.0377,-0.0352,-0.034,-0.0345,-0.0301,-0.0315,-0.0313,-0.0311,-0.0295,-0.0291,-0.0287,-0.0335,-0.0336,-0.0336,0,0,-0.0489,-0.048,-0.0462,-0.0452,-0.0437,-0.0431,-0.0426,-0.0411,-0.0406,-0.0383,-0.0383,-0.0367,-0.034,-0.0328,-0.0318,-0.0289,-0.0289,-0.0284,-0.027,-0.0254,-0.025,-0.0247,-0.0235,-0.023,-0.0282,-0.0281,-0.0281,0,-0.0482,-0.0458,-0.0453,-0.0435,-0.0425,-0.0425,-0.0406,-0.0396,-0.0376,-0.0368,-0.0374,-0.0337,-0.0327,-0.0298,-0.029,-0.0283,-0.0277,-0.0286,-0.0251,-0.0248,-0.0245,-0.0233,-0.0229,-0.0281,-0.0281,-0.0281,-0.0281,0,-0.0448,-0.0432,-0.0419,-0.0399,-0.0388,-0.0369,-0.0361,-0.0349,-0.0347,-0.034,-0.0315,-0.0302,-0.0283,-0.0276,-0.0274,-0.0245,-0.0248,-0.0253,-0.0262,-0.024,-0.0229,-0.0224,-0.028,-0.028,-0.028,-0.028,0,0,-0.0425,-0.0401,-0.0396,-0.0386,-0.0369,-0.0355,-0.0335,-0.0316,-0.0305,-0.0291,-0.0274,-0.0249,-0.0252,-0.0241,-0.0237,-0.0223,-0.0198,-0.0229,-0.0228,-0.0222,-0.0163,-0.0158,-0.0153,-0.0198,-0.0197,-0.0197,-0.0163,0,-0.04,-0.0366,-0.036,-0.033,-0.0313,-0.0311,-0.0294,-0.028,-0.0273,-0.0256,-0.0247,-0.0229,-0.0236,-0.0228,-0.0214,-0.0204,-0.0185,-0.0206,-0.018,-0.0179,-0.0183,-0.0148,-0.0144,-0.0113,-0.0159,-0.0158,-0.0158,0,-0.0367,-0.0351,-0.0318,-0.03,-0.0293,-0.0278,-0.0258,-0.0243,-0.0227,-0.0222,-0.0208,-0.0206,-0.0183,-0.0194,-0.0163,-0.0177,-0.0166,-0.0159,-0.0157,-0.0154,-0.0166,-0.0141,-0.0103,-0.0098,-0.0151,-0.0151,-0.0152,0,-0.035,-0.0321,-0.0297,-0.0289,-0.0268,-0.0256,-0.0247,-0.0231,-0.0219,-0.0202,-0.0193,-0.0174,-0.0163,-0.0147,-0.0138,-0.0147,-0.0106,-0.0117,-0.01,-0.01,-0.0091,-0.0091,-0.0048,-0.0086,-0.0086,-0.0086,-0.0086,0,-0.0322,-0.0302,-0.0289,-0.0274,-0.0251,-0.0244,-0.022,-0.0211,-0.0196,-0.0179,-0.0176,-0.016,-0.015,-0.0131,-0.0124,-0.0098,-0.0093,-0.0087,-0.0085,-0.0087,-0.0087,-0.0078,-0.008,-0.0085,-0.0085,-0.0085,-0.0085,0,-0.03,-0.029,-0.0264,-0.0245,-0.024,-0.0224,-0.0207,-0.0192,-0.0183,-0.0161,-0.0155,-0.0141,-0.0119,-0.0109,-0.0081,-0.0076,-0.0045,-0.0046,-0.0051,-0.005,-0.0032,-0.0033,0.0018,0.0027,-0.0018,-0.0017,-0.0017,0,-0.0282,-0.0266,-0.0245,-0.0233,-0.0223,-0.0204,-0.0191,-0.0183,-0.017,-0.0148,-0.0135,-0.0112,-0.0094,-0.0057,-0.0044,-0.0023,-0.0021,-0.0005,-0.0018,-0.0019,-0.0019,-0.0019,-0.0016,-0.0002,-0.0002,-0.0001,-0.0001,0,-0.0251,-0.0246,-0.0228,-0.0207,-0.0192,-0.0176,-0.0159,-0.0149,-0.0138,-0.0123,-0.0099,-0.0085,-0.0056,-0.0033,-0.0009,0.0002,0.0003,0.0003,0.0009,0.0008,0.0006,0.001,-0.0042,0.0002,0.0002,0.0002,0.0001,0.0001,-0.0229,-0.0214,-0.0196,-0.0175,-0.0162,-0.0146,-0.013,-0.0119,-0.0099,-0.0075,-0.0071,-0.0046,-0.0027,0.0004,0.0017,0.0038,0.0034,0.0041,0.0043,0.0046,0.0048,0.0001,0.0042,0.0042,0.0042,0.0041,0.0041,0,-0.0196,-0.0184,-0.0165,-0.0141,-0.0124,-0.0125,-0.0106,-0.0091,-0.0069,-0.0052,-0.0033,-0.0005,0.0019,0.0034,0.0058,0.0072,0.0074,0.0079,0.0078,0.0081,0.0049,0.0042,0.0077,0.0077,0.0077,0.0077,0.0077,0.0077,-0.0177,-0.015,-0.0143,-0.0109,-0.0097,-0.0073,-0.0061,-0.0046,-0.0032,-0.0,0.0019,0.0029,0.0047,0.0072,0.0094,0.0099,0.0108,0.0113,0.0118,0.0087,0.0083,0.008,0.0074,0.0115,0.0115,0.0149,0.0149,0.015]}]]